Location: Colstrip
(45.8838°N, 106.6267°W)
Time: 11:26:31
(UTC+00:00)

N. Korean satellite - Visible Passes

Search period start: 12 August 2022 00:00
Search period end: 22 August 2022 00:00
Orbit: 433 x 470 km, 97.3° (Epoch: 11 August)

Date Brightness Start Highest point End Pass type
(mag) Time Alt. Az. Time Alt. Az. Time Alt. Az.
14 Aug 9.6 11:22:27 10° ENE 11:24:19 14° E 11:26:09 10° ESE visible
17 Aug 10.2 11:13:12 10° E 11:13:25 10° E 11:13:39 10° E visible
19 Aug 9.4 11:34:40 10° NE 11:37:15 19° E 11:39:48 10° SE visible
